Date String (YYYY-MM-DD hh:mm:ss) UTC,Instrument flags,Ambient pressure (hPa),Sample flow (lpm),Bypass flow (lpm),Sample temperature (°C),Ambient temperature (°C),ASC tube jacket temperature (°C),LED temperature (°C),Box temperature (°C),Sample RH (%),Span deviation,Mass concentration (μg/m³),Mass concentration (μg/m³),Mass concentration (μg/m³)
DateTimeUTC,F1_M11,P_M11,Q1_M11,Q2_M11,T1_M11,T2_M11,T3_M11,T4_M11,T5_M11,U1_M11,ZSPAN_M11,X0_M11,X2_M11,X1_M11
2022-04-12 12:00:00,,0801.2,4.99,0.00,25.1,24.0,00.0,34.1,26.9,12.4,0000.0,0027.29,0006.02,0002.38
2022-04-12 12:01:00,,0801.2,5.00,0.00,25.1,24.1,00.0,34.1,26.9,12.5,0000.0,0027.78,0006.02,0002.39
2022-04-12 12:02:00,,0801.2,4.99,0.00,25.1,24.1,00.0,34.1,26.9,12.5,0000.0,0028.31,0006.00,0002.39
2022-04-12 12:03:00,,0801.3,5.00,0.00,25.1,24.1,00.0,34.1,27.0,12.7,0000.0,0028.89,0006.05,0002.38
2022-04-12 12:04:00,,0801.4,5.01,0.00,25.1,24.1,00.0,34.1,27.0,12.7,0000.0,0028.01,0006.03,0002.38
2022-04-12 12:05:00,,0801.5,5.00,0.00,25.1,24.2,00.0,34.1,27.0,12.6,0000.0,0026.33,0006.03,0002.38
2022-04-12 12:06:00,,0801.6,5.00,0.00,25.1,24.2,00.0,34.1,27.0,12.7,0000.0,0025.46,0006.03,0002.37
2022-04-12 12:07:00,,0801.6,5.00,0.00,25.2,24.2,00.0,34.1,27.0,12.5,0000.0,0024.98,0006.06,0002.38
2022-04-12 12:08:00,,0801.6,5.00,0.00,25.2,24.2,00.0,34.1,27.0,12.5,0000.0,0023.08,0005.97,0002.37
2022-04-12 12:09:00,,0801.4,5.00,0.00,25.2,24.2,00.0,34.1,27.0,12.5,0000.0,0023.34,0006.03,0002.37
2022-04-12 12:10:00,,0801.4,4.99,0.00,25.2,24.2,00.0,34.1,27.0,12.5,0000.0,0024.39,0006.07,0002.38
2022-04-12 12:11:00,,0801.5,5.01,0.00,25.1,24.2,00.0,34.1,27.0,12.4,0000.0,0024.55,0006.23,0002.46
2022-04-12 12:12:00,,0801.6,5.00,0.00,25.1,24.1,00.0,34.1,26.9,12.4,0000.0,0025.26,0006.28,0002.51
2022-04-12 12:13:00,,0801.7,4.99,0.00,25.1,24.1,00.0,34.1,26.9,12.4,0000.0,0026.60,0006.27,0002.52
2022-04-12 12:14:00,,0801.8,5.01,0.00,25.1,24.1,00.0,34.1,26.9,12.4,0000.0,0027.72,0006.27,0002.54
2022-04-12 12:15:00,,0801.8,4.99,0.00,25.1,24.1,00.0,34.1,26.9,12.3,0000.0,0027.68,0006.30,0002.57
2022-04-12 12:16:00,,0801.8,5.01,0.00,25.1,24.1,00.0,34.1,26.9,12.4,0000.0,0027.17,0006.33,0002.57
2022-04-12 12:17:00,,0801.8,4.98,0.00,25.1,24.1,00.0,34.1,26.9,12.4,0000.0,0027.63,0006.37,0002.61
2022-04-12 12:18:00,,0801.8,5.01,0.00,25.1,24.1,00.0,34.1,26.8,12.3,0000.0,0028.27,0006.40,0002.63
2022-04-12 12:19:00,,0801.9,5.00,0.00,25.0,24.1,00.0,34.1,26.8,12.4,0000.0,0029.42,0006.51,0002.66
2022-04-12 12:20:00,,0802.0,4.99,0.00,25.0,24.0,00.0,34.1,26.8,12.5,0000.0,0030.50,0006.47,0002.70
2022-04-12 12:21:00,,0802.0,5.01,0.00,25.0,24.0,00.0,34.0,26.8,12.7,0000.0,0030.90,0006.40,0002.69
2022-04-12 12:22:00,,0802.0,5.00,0.00,25.0,24.0,00.0,34.0,26.8,12.8,0000.0,0030.33,0006.25,0002.67
2022-04-12 12:23:00,,0802.1,5.00,0.00,24.9,24.0,00.0,34.0,26.7,12.6,0000.0,0028.66,0006.11,0002.64
2022-04-12 12:24:00,,0802.2,5.01,0.00,24.9,24.0,00.0,34.0,26.7,12.7,0000.0,0026.72,0006.14,0002.63
2022-04-12 12:25:00,,0802.2,5.00,0.00,24.9,23.9,00.0,34.0,26.7,12.7,0000.0,0026.65,0006.18,0002.66
2022-04-12 12:26:00,,0802.1,5.01,0.00,24.9,23.9,00.0,34.0,26.7,12.8,0000.0,0027.03,0006.19,0002.64
2022-04-12 12:27:00,,0802.1,4.99,0.00,24.9,24.0,00.0,34.0,26.8,12.8,0000.0,0028.29,0006.20,0002.63
2022-04-12 12:28:00,,0802.1,5.01,0.00,24.9,23.9,00.0,34.0,26.8,12.8,0000.0,0029.06,0006.21,0002.62
2022-04-12 12:29:00,,0802.1,4.99,0.00,24.9,23.9,00.0,33.9,26.8,12.8,0000.0,0028.41,0006.16,0002.60
2022-04-12 12:30:00,,0802.2,5.01,0.00,24.9,24.0,00.0,33.9,26.8,12.8,0000.0,0027.52,0006.10,0002.57
2022-04-12 12:31:00,,0802.1,4.99,0.00,24.9,24.0,00.0,33.9,26.7,12.8,0000.0,0026.09,0006.05,0002.54
2022-04-12 12:32:00,,0802.2,5.01,0.00,24.9,24.0,00.0,33.9,26.7,13.0,0000.0,0024.02,0005.97,0002.54
2022-04-12 12:33:00,,0802.2,4.99,0.00,24.9,24.0,00.0,33.9,26.7,13.0,0000.0,0023.72,0005.94,0002.53
2022-04-12 12:34:00,,0802.2,5.02,0.00,24.9,23.9,00.0,33.9,26.7,13.0,0000.0,0024.52,0005.97,0002.53
2022-04-12 12:35:00,,0802.2,4.99,0.00,24.9,23.9,00.0,33.9,26.7,13.3,0000.0,0025.47,0005.95,0002.54
2022-04-12 12:36:00,,0802.2,5.01,0.00,24.9,23.9,00.0,33.9,26.7,13.3,0000.0,0024.69,0005.92,0002.51
2022-04-12 12:37:00,,0802.2,4.98,0.00,24.9,23.9,00.0,33.9,26.7,13.2,0000.0,0024.12,0005.92,0002.52
2022-04-12 12:38:00,,0802.2,5.01,0.00,24.9,23.9,00.0,33.9,26.7,13.2,0000.0,0023.68,0005.89,0002.52
2022-04-12 12:39:00,,0802.2,4.99,0.00,24.9,23.9,00.0,33.9,26.7,13.3,0000.0,0022.86,0005.86,0002.52
2022-04-12 12:40:00,,0802.2,5.00,0.00,24.9,23.9,00.0,33.9,26.7,13.4,0000.0,0022.85,0005.83,0002.51
2022-04-12 12:41:00,,0802.2,5.00,0.00,24.9,23.9,00.0,33.9,26.7,13.4,0000.0,0023.57,0005.85,0002.50
2022-04-12 12:42:00,,0802.2,5.00,0.00,24.8,23.9,00.0,33.9,26.6,13.5,0000.0,0023.76,0005.90,0002.50
2022-04-12 12:43:00,,0802.2,5.02,0.00,24.8,23.9,00.0,33.9,26.6,13.5,0000.0,0023.74,0006.02,0002.51
2022-04-12 12:44:00,,0802.2,4.99,0.00,24.8,23.9,00.0,33.9,26.6,13.5,0000.0,0024.04,0006.13,0002.51
2022-04-12 12:45:00,,0802.3,5.01,0.00,24.8,23.9,00.0,33.9,26.7,13.6,0000.0,0024.24,0006.23,0002.53
2022-04-12 12:46:00,,0802.4,4.99,0.00,24.8,23.9,00.0,33.9,26.7,13.6,0000.0,0024.96,0006.37,0002.53
2022-04-12 12:47:00,,0802.4,5.01,0.00,24.9,23.9,00.0,33.9,26.7,13.7,0000.0,0025.75,0006.42,0002.51
2022-04-12 12:48:00,,0802.4,4.99,0.00,24.9,23.9,00.0,33.9,26.7,13.7,0000.0,0026.81,0006.49,0002.50
2022-04-12 12:49:00,,0802.4,5.00,0.00,24.9,23.9,00.0,33.9,26.7,13.6,0000.0,0027.49,0006.59,0002.48
2022-04-12 12:50:00,,0802.4,5.00,0.00,24.9,23.9,00.0,33.9,26.7,13.6,0000.0,0027.05,0006.60,0002.48
2022-04-12 12:51:00,,0802.5,5.01,0.00,24.8,23.9,00.0,33.8,26.6,13.6,0000.0,0026.83,0006.65,0002.48
2022-04-12 12:52:00,,0802.5,4.98,0.00,24.9,23.9,00.0,33.8,26.7,13.7,0000.0,0027.02,0006.64,0002.49
2022-04-12 12:53:00,,0802.6,5.01,0.00,24.8,23.9,00.0,33.8,26.7,13.7,0000.0,0026.89,0006.67,0002.51
2022-04-12 12:54:00,,0802.6,4.98,0.00,24.8,23.9,00.0,33.8,26.7,13.7,0000.0,0026.47,0006.70,0002.51
2022-04-12 12:55:00,,0802.7,5.01,0.00,24.9,23.9,00.0,33.8,26.6,13.7,0000.0,0026.53,0006.73,0002.51
2022-04-12 12:56:00,,0802.7,4.98,0.00,24.8,23.9,00.0,33.8,26.6,13.7,0000.0,0026.78,0006.74,0002.49
2022-04-12 12:57:00,,0802.7,5.01,0.00,24.8,23.9,00.0,33.8,26.7,13.7,0000.0,0025.64,0006.60,0002.47
2022-04-12 12:58:00,,0802.7,4.99,0.00,24.8,23.9,00.0,33.8,26.7,13.7,0000.0,0024.92,0006.60,0002.48
2022-04-12 12:59:00,,0802.8,5.01,0.00,24.8,23.9,00.0,33.8,26.7,13.8,0000.0,0023.91,0006.57,0002.47
